Hourly Data Report for June 15, 2018

LONDON CS
ONTARIO
Current Station Operator: ECCC - MSC

43°02'00.000" N
81°09'00.000" W
278.00 m
6144478
71622
WSN

Download Data

Hourly Data (June 2018)
Hourly Data Report for June 15, 2018
TIME Temp Definition
°C
Dew Point Definition
°C
Rel Hum Definition
%
Wind Dir Definition
10's deg

Wind Spd Definition
km/h
Visibility Definition
km
Stn Press Definition
kPa
Hmdx Definition


Wind Chill Definition


Weather Definition


00:00 12.0 8.3 78 LegendMM LegendMM   98.46     LegendNANA
01:00 12.5 9.2 81 LegendMM LegendMM   98.50     LegendNANA
02:00 10.5 9.1 91 LegendMM LegendMM   98.48     LegendNANA
03:00 11.5 8.9 84 LegendMM LegendMM   98.54     LegendNANA
04:00 10.2 8.2 87 LegendMM LegendMM   98.57     LegendNANA
05:00 10.2 8.3 88 LegendMM LegendMM   98.59     LegendNANA
06:00 12.3 9.4 82 LegendMM LegendMM   98.61     LegendNANA
07:00 15.0 9.2 68 LegendMM LegendMM   98.59     LegendNANA
08:00 17.6 10.2 62 LegendMM LegendMM   98.56     LegendNANA
09:00 19.8 9.0 50 LegendMM LegendMM   98.50     LegendNANA
10:00 21.9 8.2 41 LegendMM LegendMM   98.54     LegendNANA
11:00 23.3 7.2 36 LegendMM LegendMM   98.64     LegendNANA
12:00 24.0 6.7 33 LegendMM LegendMM   98.58     LegendNANA
13:00 23.8 7.3 35 LegendMM LegendMM   98.52     LegendNANA
14:00 25.3 7.6 32 LegendMM LegendMM   98.48 26   LegendNANA
15:00 26.2 8.9 34 LegendMM LegendMM   98.47 27   LegendNANA
16:00 25.5 7.3 31 LegendMM LegendMM   98.41 26   LegendNANA
17:00 24.0 7.7 35 LegendMM LegendMM   98.40     LegendNANA
18:00 22.2 9.9 46 LegendMM LegendMM   98.31     LegendNANA
19:00 21.6 8.2 42 LegendMM LegendMM   98.31     LegendNANA
20:00 20.2 7.4 44 LegendMM LegendMM   98.33     LegendNANA
21:00 18.6 7.0 47 LegendMM LegendMM   98.38     LegendNANA
22:00 17.4 6.3 48 LegendMM LegendMM   98.43     LegendNANA
23:00 17.4 8.3 55 LegendMM LegendMM   98.48     LegendNANA

Notes on Data Quality.

Legend

  • E = Estimated
  • M = Missing
  • NA = Not Available*
  • [empty] = Indicates an unobserved value
Date modified: